Home > Weather > Košice > Past weeks

Flag for Slovakia Weather for the Past 2 Weeks in Košice, Slovakia

Now
32 °F

Sunny.


Feels Like: 32 °F
Forecast: 35 / 40 °F
Wind: 2 mph from North

Location: Kosice - Barca

Current Time: Feb 12, 2016 at 9:34:14 AM

Latest Report: Feb 12, 2016 at 9:00 AM


Visibility: 10 mi

Pressure: 29.83 "Hg

Humidity: 93%

Dew point: 30 °F

Location of KošiceLocation

Historic Weather in Košice — Graph

°F

Košice Temperature Yesterday

Maximum temperature yesterday: 43 °F (at 2:30 PM)
Minimum temperature yesterday: 27 °F (at 11:00 PM)
Average temperature yesterday: 37 °F

High & Low Weather Summary for the Past Weeks

 TemperatureHumidityPressure
High50 °F (Feb 9, 11:30 PM)100% (Jan 28, 8:30 AM)30.39 "Hg (Jan 28, 8:30 AM)
Low27 °F (Feb 5, 12:30 AM)45% (Feb 5, 3:00 PM)29.12 "Hg (Feb 10, 4:30 PM)
Average37 °F88%29.99 "Hg
* Reported Jan 28 8:00 AM — Feb 12 8:30 AM, Košice, Weather by CustomWeather, © 2016

Note: Actual official high and low records may vary slightly from our data, if they occured in-between our weather recording intervals... More about our weather records

Advertising

Košice Weather History for the Previous 24 Hours

 ConditionsComfort  
Time TempWeatherWind HumidityBarometerVisibility
8:30 AM
Fri, Feb 12
30 °FSunny.2 mph93%29.83 "Hg10 mi
8:00 AM28 °FSunny.2 mph93%29.83 "Hg10 mi
7:30 AM27 °FSunny.2 mph93%29.83 "Hg10 mi
7:00 AM27 °FSunny.1 mph86%29.83 "Hg10 mi
6:30 AM27 °FClear.3 mph100%29.80 "Hg10 mi
6:00 AM27 °FClear.3 mph93%29.80 "Hg10 mi
5:30 AM28 °FClear.5 mph93%29.80 "Hg10 mi
5:00 AM28 °FClear.3 mph93%29.80 "Hg10 mi
4:30 AM28 °FClear.2 mph93%29.80 "Hg10 mi
4:00 AM28 °FClear.2 mph93%29.80 "Hg10 mi
3:30 AM28 °FClear.6 mph93%29.80 "Hg10 mi
3:00 AM30 °FClear.7 mph93%29.80 "Hg10 mi
2:30 AM32 °FClear.6 mph87%29.77 "Hg10 mi
2:00 AM30 °FClear.5 mph93%29.77 "Hg10 mi
1:30 AM30 °FPassing clouds.5 mph93%29.77 "HgN/A
1:00 AM30 °FClear.3 mph86%29.77 "Hg10 mi
12:30 AM34 °FClear.3 mph81%29.77 "Hg10 mi
12:00 AM28 °FClear.5 mph93%29.77 "Hg10 mi
11:00 PM
Thu, Feb 11
27 °FPassing clouds.6 mph93%29.77 "HgN/A
10:30 PM28 °FClear.6 mph93%29.74 "Hg10 mi
10:00 PM32 °FClear.1 mph93%29.74 "Hg10 mi
9:30 PM36 °FClear.8 mph81%29.74 "Hg10 mi
9:00 PM34 °FClear.10 mph87%29.74 "Hg10 mi
8:30 PM34 °FClear.8 mph87%29.74 "Hg10 mi
8:00 PM32 °FClear.7 mph87%29.71 "Hg10 mi
7:30 PM37 °FClear.7 mph75%29.71 "Hg10 mi
7:00 PM39 °FClear.12 mph70%29.71 "Hg10 mi
6:30 PM37 °FClear.12 mph75%29.68 "Hg10 mi
6:00 PM37 °FClear.10 mph81%29.68 "Hg10 mi
5:30 PM39 °FClear.12 mph75%29.68 "Hg10 mi
5:00 PM41 °FPassing clouds.9 mph76%29.65 "HgN/A
4:30 PM41 °FScattered clouds.12 mph76%29.65 "HgN/A
4:00 PM43 °FScattered clouds.10 mph71%29.65 "HgN/A
3:30 PM41 °FScattered clouds.10 mph76%29.65 "HgN/A
3:00 PM43 °FScattered clouds.13 mph71%29.62 "HgN/A
2:30 PM43 °FBroken clouds.13 mph71%29.62 "HgN/A
2:00 PM41 °FPartly sunny.14 mph81%29.62 "HgN/A
1:30 PM41 °FPassing clouds.14 mph76%29.62 "HgN/A
1:00 PM41 °FPartly sunny.13 mph76%29.62 "HgN/A
12:30 PM41 °FPartly sunny.16 mph76%29.59 "HgN/A
12:00 PM39 °FPartly sunny.16 mph81%29.59 "HgN/A
11:30 AM41 °FScattered clouds.14 mph81%29.59 "HgN/A
11:00 AM37 °FScattered clouds.12 mph87%29.59 "HgN/A
10:30 AM39 °FScattered clouds.8 mph81%29.59 "HgN/A
10:00 AM37 °FPassing clouds.5 mph87%29.59 "HgN/A
9:30 AM37 °FPassing clouds.7 mph87%29.59 "HgN/A
9:00 AM36 °FPassing clouds.7 mph87%29.56 "HgN/A
Weather by CustomWeather, © 2016

See weather overviewHow to use our weather pages